#timestamp,LO_Frequency,Hit,StdDev 
1711281615.2,286046989.1,P
1711281635.0,286046988.7,P
1711281635.9,286046988.7,Y
1711281655.8,286046998.7,P
1711281705.6,286047006.1,E
1711281715.6,286047005.0,N
1711281735.4,286047005.2,P
1711281755.2,286047010.5,P
1711281775.1,286047012.3,Y
1711281776.0,286047012.3,P
1711281795.8,286047006.8,N
1711281815.7,286047010.4,P
1711281835.5,286047006.8,N
1711281855.3,286047006.0,N
1711281875.2,286047001.7,N
1711281895.9,286047000.3,N
1711281915.7,286047005.9,N
1711281935.6,286047001.1,N
1711281955.4,286046993.7,N
1711281975.2,286047000.1,N
1711281995.1,286046997.6,N
1711281996.0,286046997.6,N
1711282015.8,286046995.9,N
1711282035.7,286046994.0,N
1711282055.5,286046996.0,N
1711282075.3,286046993.6,N
1711282095.2,286046988.5,N
1711282115.0,286046987.1,N
1711282115.9,286046987.1,N
1711282135.8,286046984.7,N
1711282155.6,286046982.9,N
1711282175.4,286046980.3,N
1711282195.3,286046977.0,N
1711282215.1,286046973.8,N
1711282235.8,286046971.2,N
1711282255.7,286046970.1,N
1711282275.5,286046968.2,N
1711282295.4,286046969.0,N
1711282315.2,286046968.9,N
1711282335.0,286046970.4,N
1711282335.9,286046970.4,N
1711282355.8,286046974.3,N
1711282375.6,286046975.8,N
1711282395.4,286046982.6,N
1711282415.3,286046993.2,N
1711282435.1,286046995.8,N
1711282455.9,286046993.7,N
1711282475.7,286046992.3,N
1711282495.5,286046991.5,N
1711282515.4,286046991.4,N
1711282535.2,286046990.8,N
1711282555.0,286046986.5,N
1711282555.9,286046986.5,N
1711282575.8,286046983.5,N
1711282595.6,286046977.8,N
1711282615.5,286046977.5,N
1711282635.3,286046978.2,N
1711282655.1,286046981.6,N
1711282675.9,286046980.9,N
1711282695.7,286046978.5,N
1711282715.5,286046972.9,Y
1711282735.4,286046994.5,P
1711282755.2,286046996.3,N
1711282775.1,286046993.0,N
1711282776.0,286046993.0,N
1711282795.8,286046988.9,N
1711282815.6,286046992.6,N
1711282835.5,286046992.8,N
1711282855.3,286046997.4,N
1711282875.2,286047000.6,N
1711282895.9,286047003.1,N
1711282915.7,286047000.3,N
1711282935.6,286046999.3,N
1711282955.4,286046999.3,N
1711282975.2,286047003.9,N
1711282995.1,286047003.7,N
1711282996.0,286047003.7,N
1711283015.8,286047000.7,N
1711283035.7,286046995.5,N
1711283055.5,286046994.2,N
1711283075.3,286046988.5,N
1711283095.2,286046987.8,N
1711283115.0,286046987.6,N
1711283115.9,286046987.6,N
1711283135.8,286046988.4,N
1711283155.6,286046987.4,N
1711283175.4,286046984.6,N
1711283195.3,286046981.8,N
1711283215.1,286046982.9,N
1711283235.8,286046986.1,N
1711283255.7,286046988.5,N
1711283275.5,286046992.7,N
1711283295.4,286046988.1,N
1711283315.2,286046983.0,N
1711283335.0,286046981.7,N
1711283335.9,286046981.7,N
1711283355.8,286046978.7,N
1711283375.6,286046975.5,Y
1711283395.5,286046979.7,P
1711283415.3,286046975.7,P
1711283435.1,286046979.1,P
1711283455.9,286046981.0,Y
1711283475.7,286047008.0,P
1711283495.6,286047012.8,N
1711283515.4,286047012.2,N
1711283535.2,286047012.8,N
1711283555.1,286047012.6,N
1711283556.0,286047012.6,N
1711283575.8,286047017.5,N
1711283595.7,286047016.4,N
1711283615.5,286047011.4,N
1711283635.3,286047009.9,N
1711283655.2,286047008.2,N
1711283675.0,286047008.5,N
1711283675.9,286047008.5,N
1711283695.7,286047009.3,N
1711283715.6,286047012.8,N
1711283735.4,286047011.1,N
1711283755.3,286047011.1,N
1711283775.1,286047013.6,N
1711283776.0,286047013.6,N
1711283795.8,286047014.0,N
1711283815.7,286047010.0,N
1711283835.5,286047016.5,N
1711283855.4,286047015.0,N
1711283875.2,286047009.4,N
1711283895.0,286047010.6,N
1711283895.9,286047010.6,N
1711283915.8,286047004.5,N
1711283935.6,286047005.3,N
1711283955.4,286047003.1,N
1711283975.3,286047003.3,N
1711283995.1,286047005.8,N
1711284015.9,286047013.2,Y
1711284035.7,286047004.2,P
1711284055.5,286047003.8,N
1711284075.4,286047001.7,N
1711284095.2,286047006.1,N
1711284115.1,286047007.0,N
1711284116.0,286047007.0,N
1711284135.8,286047003.5,N
1711284155.6,286047007.8,N
1711284175.5,286047013.7,Y
1711284195.3,286047003.6,P
1711284215.2,286046998.1,N
1711284235.9,286046995.0,N
1711284255.7,286046995.2,N
1711284275.6,286046994.6,N
1711284295.4,286046998.8,N
1711284315.2,286046999.1,N
1711284335.1,286046997.4,N
1711284336.0,286046997.4,N
1711284355.8,286046998.5,N
1711284375.7,286047001.8,N
1711284395.5,286047005.9,N
1711284415.3,286047009.5,N
1711284435.2,286047007.8,N
1711284455.9,286047009.8,N
1711284475.7,286047013.0,N
1711284495.6,286047014.6,N
1711284515.4,286047014.9,N
1711284535.3,286047013.9,N
1711284555.1,286047012.3,N
1711284556.0,286047012.3,N
1711284575.8,286047010.6,N
1711284595.7,286047005.8,N
1711284615.5,286047001.2,N
1711284635.3,286046994.9,N
1711284655.2,286046995.1,N
1711284675.0,286046996.5,N
1711284675.9,286046996.5,N
1711284695.8,286046997.0,N
1711284715.6,286046997.7,N
1711284735.5,286046996.1,N
1711284755.3,286046995.7,N
1711284775.1,286046999.2,N
1711284795.9,286047000.7,N
1711284815.7,286047001.5,N
1711284835.5,286047004.0,N
1711284855.4,286046999.4,N
1711284875.2,286046999.3,N
1711284895.1,286047001.2,N
1711284896.0,286047001.2,N
1711284915.8,286047001.8,N
1711284935.6,286047004.3,N
1711284955.5,286047005.3,N
1711284975.3,286047008.5,N
1711284995.1,286047006.2,N
1711285015.9,286047006.7,N
1711285035.7,286047009.2,N
1711285055.6,286047009.9,N
1711285075.4,286047011.1,N
1711285095.2,286047012.1,N
1711285115.1,286047014.9,N
1711285116.0,286047014.9,N
1711285135.8,286047012.0,N
1711285155.6,286047010.0,N
1711285175.5,286047005.1,N
1711285195.3,286047000.2,N
